FDX9799 RJBB-VHHH

Flight info

Callsign FDX9799
Flight time N/A
Altitude 36000
Route OBLUR Y236 IVROG Y340 RUSUD Y75 IGBOD Y34 HKC Y50 IGMON A1 ELATO V522 ABBEY
Aircraft MD11/H-SDE1E2E3FGHIJ2J3J4J5M1RWXY/LB1D1

Departure

Time N/A
Airport Kansai International Airport (RJBB)

Arrival

Time 2026-05-08 02:19
Airport Hong Kong International Airport (VHHH)
Time Latitude Longitude Altitude Speed Heading
2026-05-08 01:53 22.29024 115.61652 25557 ft 452 kts 269°
2026-05-08 01:53 22.28930 115.58252 24894 ft 447 kts 269°
2026-05-08 01:54 22.28838 115.54912 24253 ft 443 kts 269°
2026-05-08 01:54 22.28749 115.51605 23618 ft 439 kts 269°
2026-05-08 01:54 22.28659 115.48326 22989 ft 434 kts 269°
2026-05-08 01:54 22.28569 115.45079 22370 ft 430 kts 269°
2026-05-08 01:55 22.28479 115.41868 21755 ft 426 kts 269°
2026-05-08 01:55 22.28389 115.38733 21150 ft 421 kts 269°
2026-05-08 01:55 22.28299 115.35588 20553 ft 417 kts 269°
2026-05-08 01:55 22.28208 115.32472 19945 ft 413 kts 269°
2026-05-08 01:56 22.28113 115.29395 19321 ft 409 kts 269°
2026-05-08 01:56 22.28018 115.26341 18705 ft 404 kts 269°
2026-05-08 01:56 22.27923 115.23323 18104 ft 400 kts 269°
2026-05-08 01:56 22.27829 115.20335 17500 ft 396 kts 269°
2026-05-08 01:57 22.27737 115.17373 16908 ft 393 kts 269°
2026-05-08 01:57 22.27645 115.14439 16320 ft 390 kts 269°
2026-05-08 01:57 22.27556 115.11531 15736 ft 386 kts 268°
2026-05-08 01:57 22.27467 115.08641 15166 ft 383 kts 268°
2026-05-08 01:58 22.27378 115.05776 14599 ft 381 kts 268°
2026-05-08 01:58 22.27289 115.02932 14041 ft 378 kts 268°
2026-05-08 01:58 22.27200 115.00113 13486 ft 375 kts 268°
2026-05-08 01:58 22.27111 114.97307 12935 ft 372 kts 268°
2026-05-08 01:59 22.27021 114.94528 12398 ft 370 kts 268°
2026-05-08 01:59 22.26929 114.91765 12022 ft 368 kts 268°
2026-05-08 01:59 22.26837 114.89013 11648 ft 365 kts 268°
2026-05-08 01:59 22.26745 114.86282 11337 ft 359 kts 268°
2026-05-08 02:00 22.26658 114.83657 11169 ft 340 kts 268°
2026-05-08 02:00 22.26556 114.81152 11043 ft 330 kts 265°
2026-05-08 02:00 22.26116 114.78738 10989 ft 328 kts 250°
2026-05-08 02:00 22.24983 114.76614 10924 ft 328 kts 231°
2026-05-08 02:01 22.23425 114.74808 10873 ft 330 kts 225°
2026-05-08 02:01 22.21778 114.73133 10814 ft 330 kts 223°
2026-05-08 02:01 22.20090 114.71454 10750 ft 330 kts 223°
2026-05-08 02:01 22.18408 114.69769 10686 ft 329 kts 224°
2026-05-08 02:02 22.16738 114.68078 10621 ft 330 kts 224°
2026-05-08 02:02 22.15075 114.66379 10557 ft 329 kts 224°
2026-05-08 02:02 22.13418 114.64673 10499 ft 329 kts 224°
2026-05-08 02:02 22.11767 114.62965 10448 ft 328 kts 225°
2026-05-08 02:03 22.10164 114.61299 10366 ft 312 kts 224°
2026-05-08 02:03 22.08648 114.59730 10294 ft 294 kts 224°
2026-05-08 02:03 22.07185 114.58217 10139 ft 290 kts 224°
2026-05-08 02:03 22.05731 114.56710 9706 ft 291 kts 224°
2026-05-08 02:04 22.04272 114.55196 9254 ft 290 kts 224°
2026-05-08 02:04 22.02848 114.53692 9002 ft 280 kts 229°
2026-05-08 02:04 22.01783 114.51957 8959 ft 278 kts 243°
2026-05-08 02:04 22.01218 114.49980 8939 ft 278 kts 266°
2026-05-08 02:05 22.01415 114.47911 8939 ft 284 kts 282°
2026-05-08 02:05 22.01892 114.45820 8933 ft 290 kts 283°
2026-05-08 02:05 22.02358 114.43699 8928 ft 291 kts 282°
2026-05-08 02:05 22.02767 114.41566 8927 ft 291 kts 280°
2026-05-08 02:06 22.03122 114.39447 8923 ft 291 kts 279°
2026-05-08 02:06 22.03447 114.37297 8923 ft 291 kts 278°
2026-05-08 02:06 22.03752 114.35117 8923 ft 291 kts 278°
2026-05-08 02:06 22.04034 114.32983 8923 ft 291 kts 277°
2026-05-08 02:07 22.04310 114.30821 8923 ft 291 kts 277°
2026-05-08 02:07 22.04585 114.28629 8923 ft 291 kts 277°
2026-05-08 02:07 22.04849 114.26498 8923 ft 291 kts 277°
2026-05-08 02:07 22.05112 114.24338 8923 ft 291 kts 277°
2026-05-08 02:08 22.05373 114.22174 8923 ft 291 kts 277°
2026-05-08 02:08 22.05631 114.20029 8919 ft 286 kts 277°
2026-05-08 02:08 22.05886 114.17906 8918 ft 285 kts 277°
2026-05-08 02:08 22.06138 114.15789 8922 ft 285 kts 277°
2026-05-08 02:09 22.06391 114.13670 8920 ft 285 kts 277°
2026-05-08 02:09 22.06644 114.11546 8918 ft 285 kts 277°
2026-05-08 02:09 22.06895 114.09428 8918 ft 285 kts 277°
2026-05-08 02:09 22.07147 114.07309 8918 ft 285 kts 277°
2026-05-08 02:10 22.07398 114.05191 8917 ft 285 kts 277°
2026-05-08 02:10 22.07649 114.03075 8917 ft 285 kts 277°
2026-05-08 02:10 22.07900 114.00947 8687 ft 289 kts 277°
2026-05-08 02:10 22.08155 113.98785 8123 ft 292 kts 277°
2026-05-08 02:11 22.08412 113.96595 7550 ft 296 kts 277°
2026-05-08 02:11 22.08673 113.94395 6978 ft 293 kts 277°
2026-05-08 02:11 22.08923 113.92256 6399 ft 282 kts 277°
2026-05-08 02:11 22.09166 113.90188 5821 ft 275 kts 277°
2026-05-08 02:12 22.09404 113.88157 5245 ft 271 kts 277°
2026-05-08 02:12 22.09639 113.86155 4769 ft 267 kts 277°
2026-05-08 02:12 22.09873 113.84153 4483 ft 268 kts 277°
2026-05-08 02:12 22.10105 113.82167 4305 ft 266 kts 277°
2026-05-08 02:13 22.10358 113.80198 4131 ft 265 kts 282°
2026-05-08 02:13 22.10983 113.78339 3951 ft 264 kts 302°
2026-05-08 02:13 22.12189 113.76944 3760 ft 254 kts 325°
2026-05-08 02:13 22.13699 113.76019 3519 ft 246 kts 334°
2026-05-08 02:14 22.15206 113.75245 3258 ft 234 kts 335°
2026-05-08 02:14 22.16659 113.74517 3004 ft 227 kts 335°
2026-05-08 02:14 22.18081 113.73809 2817 ft 220 kts 336°
2026-05-08 02:14 22.19486 113.73409 2597 ft 201 kts
2026-05-08 02:15 22.20770 113.73761 2446 ft 188 kts 25°
2026-05-08 02:15 22.21944 113.74380 2337 ft 188 kts 27°
2026-05-08 02:15 22.23106 113.75015 2211 ft 187 kts 27°
2026-05-08 02:15 22.24251 113.75673 2160 ft 187 kts 33°
2026-05-08 02:16 22.25071 113.76606 2126 ft 186 kts 61°
2026-05-08 02:16 22.25591 113.77893 2132 ft 189 kts 68°
2026-05-08 02:16 22.26062 113.79218 2111 ft 189 kts 69°
2026-05-08 02:16 22.26528 113.80551 1959 ft 190 kts 67°
2026-05-08 02:17 22.27043 113.81825 1689 ft 176 kts 65°
2026-05-08 02:17 22.27475 113.83036 1365 ft 172 kts 70°
2026-05-08 02:17 22.27833 113.84227 1113 ft 166 kts 70°
2026-05-08 02:17 22.28208 113.85403 935 ft 166 kts 69°
2026-05-08 02:18 22.28589 113.86575 698 ft 165 kts 70°
2026-05-08 02:18 22.28949 113.87726 470 ft 160 kts 70°
2026-05-08 02:18 22.29305 113.88854 266 ft 163 kts 67°
2026-05-08 02:18 22.29696 113.90015 91 ft 162 kts 70°
2026-05-08 02:19 22.30024 113.91044 44 ft 117 kts 71°
2026-05-08 02:19 22.30214 113.91630 44 ft 72 kts 71°
2026-05-08 02:19 22.30343 113.92036 45 ft 33 kts 71°
2026-05-08 02:19 22.30370 113.92228 47 ft 21 kts 94°
2026-05-08 02:20 22.30356 113.92336 45 ft 9 kts 101°
2026-05-08 02:20 22.30337 113.92393 45 ft 3 kts 136°
2026-05-08 02:20 22.30306 113.92396 45 ft 5 kts 188°
2026-05-08 02:20 22.30273 113.92366 44 ft 8 kts 236°
2026-05-08 02:21 22.30250 113.92310 44 ft 8 kts 249°
2026-05-08 02:21 22.30229 113.92247 44 ft 11 kts 250°
2026-05-08 02:21 22.30201 113.92163 44 ft 11 kts 251°
2026-05-08 02:21 22.30177 113.92086 44 ft 10 kts 251°
2026-05-08 02:22 22.30155 113.92016 44 ft 9 kts 250°
2026-05-08 02:22 22.30128 113.91932 44 ft 14 kts 252°
2026-05-08 02:22 22.30091 113.91816 44 ft 18 kts 251°
2026-05-08 02:22 22.30049 113.91722 44 ft 8 kts 218°
2026-05-08 02:23 22.30002 113.91714 44 ft 7 kts 173°
2026-05-08 02:23 22.29940 113.91735 44 ft 10 kts 158°
2026-05-08 02:23 22.29885 113.91770 44 ft 8 kts 133°
2026-05-08 02:23 22.29875 113.91817 44 ft 3 kts 84°
2026-05-08 02:24 22.29885 113.91836 44 ft 4 kts 53°
2026-05-08 02:24 22.29894 113.91836 44 ft 1 kts
2026-05-08 02:24 22.29926 113.91828 43 ft 6 kts 345°
2026-05-08 02:24 22.29955 113.91819 44 ft 3 kts 342°
2026-05-08 02:25 22.29964 113.91815 44 ft 0 kts 341°
2026-05-08 02:25 22.29965 113.91815 44 ft 0 kts 341°